Regional Weather Roundup
Issued by NWS

Home | Current Version | Previous Version | Text Only | Print | Product List | Glossary Off
Versions: 1 2 3 4 5 6 7 8 9 10 11 12 13 14 15 16 17 18 19 20 21 22 23 24 25 26 27 28 29 30 31 32 33 34 35 36 37 38 39 40 41 42 43 44 45 46 47 48 49 50

000
ASUS43 KOAX 282110
RWRNE

WEATHER ROUNDUP FOR NEBRASKA
NATIONAL WEATHER SERVICE OMAHA NE
400 PM CDT SUN MAY 28 2017

NOTES: SATELLITE DATA IS BEING USED TO AUGMENT CLOUD COVER ABOVE
       12000 FEET.
       "FAIR" INDICATES FEW OR NO CLOUDS BELOW 12,000 FEET WITH NO
       SIGNIFICANT WEATHER AND/OR OBSTRUCTIONS TO VISIBILITY.

  * THESE STATIONS DO NOT REPORT WEATHER SUCH AS RAIN...SNOW OR FOG.

NEZ001>004-019>022-054>056-282200-
NEBRASKA PANHANDLE

CITY           SKY/WX    TMP DP  RH WIND       PRES   REMARKS
SCOTTSBLUFF    MOSUNNY   76  40  27 W12G22    30.12F
ALLIANCE       MOSUNNY   72  43  35 NW12G23   30.09F
CHADRON        CLOUDY    63  47  55 N20G30    30.10R
GORDON         CLOUDY    63  44  51 W8        30.09R
KIMBALL        MOSUNNY   70  37  29 NW9G23    30.19S
SIDNEY         MOSUNNY   69  41  36 N20G29    30.16F
$$

NEZ057>060-069>072-079>082-282200-
SOUTHWEST NEBRASKA

CITY           SKY/WX    TMP DP  RH WIND       PRES   REMARKS
NORTH PLATTE   CLOUDY    76  49  38 N12G18    30.05F
IMPERIAL       PTSUNNY   74  35  24 NW13      30.10S
LEXINGTON      MOSUNNY   76  43  30 N16G26    30.04S
MCCOOK         MOSUNNY   82  40  22 NW14G26   30.05F
OGALLALA       CLOUDY    75  43  31 NW14G22   30.10F
$$

NEZ005>010-023>029-035>040-094-282200-
NORTH CENTRAL NEBRASKA

CITY           SKY/WX    TMP DP  RH WIND       PRES   REMARKS
VALENTINE      SUNNY     76  33  21 NW17      30.02F
AINSWORTH      SUNNY     72  37  27 NW17G24   30.03S
BROKEN BOW     MOSUNNY   78  38  23 N21G26    30.02S
O`NEILL        MOSUNNY   75  35  23 NW16G22   29.98F
ORD            SUNNY     75  36  24 NW18G26   29.99S
THEDFORD       PTSUNNY   74  42  31 NW12G20   30.05F
$$

NEZ041-046>049-061>064-073>077-083>087-282200-
SOUTH CENTRAL NEBRASKA

CITY           SKY/WX    TMP DP  RH WIND       PRES   REMARKS
GRAND ISLAND   MOSUNNY   80  43  26 N23G32    29.98S
AURORA         SUNNY     80  38  21 N23G33    29.97S
HASTINGS       LGT RAIN  79  41  25 NW16G26   29.99F
HEBRON         PTSUNNY   81  39  22 NW14G21   29.96S
HOLDREGE       PTSUNNY   74  38  27 N13G26    30.03R
KEARNEY *      PTSUNNY   73  46  38 W16       30.03R
YORK           MOSUNNY   81  39  22 NW20G26   29.95S
$$

NEZ011>018-030>034-042>045-282200-
NORTHEAST NEBRASKA

CITY           SKY/WX    TMP DP  RH WIND       PRES   REMARKS
NORFOLK        SUNNY     76  37  24 NW20G28   29.94S
ALBION         MOSUNNY   76  42  29 NW16G25   29.98S
BLAIR          MOSUNNY   79  40  25 NW15G29   29.90R
FREMONT        SUNNY     79  41  25 NW23G33   29.92R
TEKAMAH        MOSUNNY   81  35  19 NW28G39   29.89R
WAYNE          MOSUNNY   76  42  28 NW20G26   29.92S
$$

NEZ050>053-065>068-078-088>093-282200-
SOUTHEAST NEBRASKA

CITY           SKY/WX    TMP DP  RH WIND       PRES   REMARKS
LINCOLN        MOSUNNY   84  40  21 NW23G30   29.91S
OMAHA EPPLEY   MOSUNNY   82  44  26 NW21G33   29.87R
BEATRICE       PTSUNNY   82  46  27 W17       29.93F
FALLS CITY     MOSUNNY   79  49  34 W15       29.92F
NEBRASKA CITY  PTSUNNY   79  36  21 W13       29.90F
PLATTSMOUTH    PTSUNNY   81  40  23 NW16G23   29.88F
$$

NEZ044-045-051>053-067-282200-
OMAHA AREA

CITY           SKY/WX    TMP DP  RH WIND       PRES   REMARKS
OMAHA EPPLEY   MOSUNNY   82  44  26 NW21G33   29.87R
BLAIR          MOSUNNY   79  40  25 NW15G29   29.90R
FREMONT        SUNNY     79  41  25 NW23G33   29.92R
MILLARD        MOSUNNY   81  46  28 NW18G33   29.89R
OFFUTT AFB     SUNNY     80  45  28 NW18G29   29.87S
PLATTSMOUTH    PTSUNNY   81  40  23 NW16G23   29.88F
WAHOO          FAIR      82  37  19 NW21G32   29.91R
$$




USA.gov is the U.S. government's official web portal to all federal, state and local government web resources and services.